Miscellaneous Local Product
Issued by NWS North Platte, NE

Home | Current Version | Previous Version | Text Only | Print | Product List | Glossary On
Versions: 1 2 3 4 5 6 7 8 9 10 11 12 13 14 15 16 17 18 19 20 21 22 23 24 25 26 27 28 29 30 31 32 33 34 35 36 37 38 39 40 41 42 43 44 45 46 47 48 49 50
000
AXUS43 KLBF 210610
MISLBF


WESTERN AND NORTH CENTRAL NEBRASKA HOURLY WEATHER ROUNDUP
NATIONAL WEATHER SERVICE NORTH PLATTE NE
100 AM CDT SAT OCT 21 2017

NOTE: "FAIR" INDICATES FEW OR NO CLOUDS BELOW 12,000 FEET WITH NO
SIGNIFICANT WEATHER AND/OR OBSTRUCTIONS TO VISIBILITY.

NOTE: STATIONS NOT REPORTING VARIABLES SUCH AS SKY/WEATHER OR
PRESSURE ARE PROVIDED BY RAWS AND APRS NETWORKS AND ARE NOT UNDER
NATIONAL WEATHER SERVICE QUALITY CONTROL.

...OBSERVATIONS IN AND NEAR THE EASTERN PANHANDLE OF NEBRASKA...

CITY           SKY/WX    TMP DP  RH WIND       PRES   REMARKS
PINE RIDGE     LGT RAIN  66  36  32 W17G32    29.49R
GORDON         MOCLDY    65  37  34 NW17      29.47F
CHADRON        CLOUDY    64  31  28 W20G29    29.51R
ALLIANCE       PTCLDY    60  38  43 W13       29.51R
SIDNEY         CLOUDY    56  36  47 NW17G26   29.52R
CRESCENT LAKE    N/A     60  46  60 W6G23       N/A
$$

...OBSERVATIONS IN NORTHERN NEBRASKA AND FAR SOUTHERN SOUTH DAKOTA...

CITY           SKY/WX    TMP DP  RH WIND       PRES   REMARKS
WINNER         FAIR      68  56  65 S23G35    29.40S
VALENTINE      CLEAR     65  54  67 S17G23    29.42F
THEDFORD       CLEAR     63  56  78 S17       29.46F
AINSWORTH      CLEAR     63  56  80 S17G23    29.45F
O`NEILL        CLEAR     65  59  80 S17G26    29.50F
ORD            CLEAR     65  58  78 S15G23    29.51F
BROKEN BOW     CLEAR     64  57  78 S14       29.49F
VALENTINE NWR    N/A     60  53  79 S9          N/A
HALSEY           N/A     64  55  74 S12G21      N/A
BUTTE            N/A     66  58  76 S14G24      N/A
CHAMBERS         N/A     64  59  83 MISG        N/A
EWING            N/A     66  58  77 S10G18      N/A
$$

...OBSERVATIONS IN SOUTHWEST NEBRASKA AND FAR NORTHEAST COLORADO...

CITY           SKY/WX    TMP DP  RH WIND       PRES   REMARKS
HOLYOKE        FAIR      52  43  71 S6        29.44F
IMPERIAL       CLEAR     60  49  66 S14       29.44F
OGALLALA       CLOUDY    60  52  75 CALM      29.44F
NORTH PLATTE   CLEAR     64  57  78 SE10      29.46F
MCCOOK         CLEAR     67  57  70 S20G37    29.46F
LEXINGTON      CLEAR     65  58  75 S17G24    29.50F
STAPLETON        N/A     60  55  85 SE3         N/A
GOTHENBURG       N/A     65  55  69 S12         N/A
CALLAWAY         N/A     62  57  84 S20         N/A
$$

...OBSERVATIONS IN CENTRAL LINCOLN COUNTY AREA...

CITY           SKY/WX    TMP DP  RH WIND       PRES   REMARKS
N.P. AIRPORT   CLEAR     64  57  78 SE10      29.46F
N.P. DOWNTOWN    N/A     62  56  81 CALM        N/A
N.P. SOUTHEAST   N/A     62  55  79 SE7         N/A
N.P. HILLCREST   N/A     63  57  81 SE13        N/A
$$

...SOME OBSERVATIONS FROM AROUND THE REGION...

CITY           SKY/WX    TMP DP  RH WIND       PRES   REMARKS
DENVER         CLOUDY    61  25  25 SW16      29.56R
LIMON          CLOUDY    59  25  27 SW9       29.57S
ASPEN          LGT SNOW  35  33  92 N14G23    29.86R FOG     WCI  26
LARAMIE        CLOUDY    33  29  85 E3        29.77R
CASPER         CLOUDY    43  14  31 SW14      29.72R
CHEYENNE       CLOUDY    41  29  62 NW33G51   29.64R
SCOTTSBLUFF    LGT RAIN  58  36  43 W18G24    29.57R
GRAND ISLAND   CLEAR     66  59  78 S23G38    29.56F
OMAHA          PTCLDY    67  56  67 S23       29.69F
SIOUX FALLS    CLOUDY    68  58  70 S22G32    29.54F
PIERRE         CLEAR     60  53  77 SE7       29.35R
RAPID CITY     CLOUDY    61  41  47 N32G41    29.44R
BISMARCK       CLEAR     63  53  70 S12       29.28R
KANSAS CITY    PTCLDY    66  58  75 S20G29    29.85S
HILL CITY      CLEAR     70  59  68 S23G40    29.54S
WICHITA        CLOUDY    69  63  81 S22G35    29.76F
DODGE CITY     CLEAR     67  58  72 S29G41    29.65F
OKLAHOMA CITY  MOCLDY    69  63  81 S17G28    29.86S
DALLAS         CLOUDY    74  68  81 S10       29.90F
AMARILLO       CLEAR     63  57  81 S22       29.78S
$$




USA.gov is the U.S. government's official web portal to all federal, state and local government web resources and services.